DW7831 Weather Reports


time (UTC)temp
F
wind
direction
speed
knots
gust
knots
rain 1hr
in
rain 24hr
in
rain mn
in
humidity
%
barometer
mb
20260503203032 50 318 6.1 0.0 0.00 0.00 0.00 34 1011.0
20260503201507 49 288 5.2 0.0 0.00 0.00 0.00 35 1011.1
20260503200004 48 279 6.1 0.0 0.00 0.00 0.00 38 1011.1
20260503194501 47 337 5.2 0.0 0.00 0.00 0.00 39 1011.2
20260503193057 47 290 6.1 0.0 0.00 0.00 0.00 39 1011.5
20260503191553 47 340 4.3 0.0 0.00 0.00 0.00 40 1011.4
20260503190057 46 355 4.3 0.0 0.00 0.00 0.00 41 1011.6
20260503184545 46 281 4.3 0.0 0.00 0.00 0.00 41 1011.8
20260503183043 45 273 4.3 0.0 0.00 0.00 0.00 43 1012.0
20260503181538 45 355 5.2 0.0 0.00 0.00 0.00 43 1012.0
20260503180036 44 318 5.2 0.0 0.00 0.00 0.00 44 1012.1
20260503174528 43 332 4.3 0.0 0.00 0.00 0.00 47 1012.2
20260503173024 42 360 2.6 0.0 0.00 0.00 0.00 47 1012.5
20260503171520 42 267 0.9 0.0 0.00 0.00 0.00 50 1012.4
20260503081525 31 298 0.0 0.0 0.00 0.00 0.00 29 1012.5
20260503071501 31 298 0.0 0.0 0.00 0.00 0.00 22 1012.4
20260503060113 30 298 0.0 0.0 0.00 0.00 0.00 34 1013.0
20260503054601 30 298 0.0 0.0 0.00 0.00 0.00 35 1013.0
20260503053047 30 298 0.0 0.0 0.00 0.00 0.00 35 1013.0
20260503051545 30 298 0.0 0.0 0.00 0.00 0.00 37 1013.3
20260503050044 30 298 0.0 0.0 0.00 0.00 0.00 37 1013.6
20260503044542 30 298 0.0 0.0 0.00 0.00 0.00 41 1013.5
20260503043042 30 298 0.0 0.0 0.00 0.00 0.00 42 1013.5
20260503041545 30 298 0.0 0.0 0.00 0.00 0.00 45 1013.6
20260503040039 30 298 0.0 0.0 0.00 0.00 0.00 51 1013.6
20260503034535 30 298 0.0 0.0 0.00 0.00 0.01 54 1013.6
20260503033033 31 298 0.0 0.0 0.00 0.00 0.01 57 1013.7
20260503031526 31 298 0.0 0.0 0.00 0.00 0.01 60 1013.7
20260503030026 32 298 0.0 0.0 0.00 0.00 0.01 63 1013.7
20260503024520 32 298 0.0 0.0 0.00 0.00 0.01 65 1013.7
20260503023015 33 298 0.0 0.0 0.00 0.00 0.01 66 1013.8
20260503021511 34 298 0.0 0.0 0.00 0.00 0.01 66 1013.9
20260503020007 34 298 0.0 0.0 0.00 0.00 0.01 66 1013.8
20260503014506 35 298 0.0 0.0 0.00 0.00 0.01 65 1013.8
20260503013100 36 298 0.0 0.0 0.00 0.00 0.01 63 1013.7
20260503011557 37 298 0.0 0.0 0.00 0.00 0.01 62 1013.7
20260503010052 38 298 0.0 0.0 0.00 0.00 0.01 60 1013.5
20260503004550 39 298 0.0 0.0 0.00 0.00 0.01 58 1013.2
20260503003043 39 298 0.0 0.0 0.00 0.00 0.01 57 1013.1
20260503001540 40 298 0.0 0.0 0.00 0.00 0.01 56 1013.0
20260503000034 41 317 0.0 0.0 0.00 0.00 0.01 55 1012.9
20260502234547 41 315 1.7 0.0 0.00 0.00 0.01 53 1012.8
20260502233029 42 269 0.9 0.0 0.00 0.00 0.01 52 1012.7
20260502231526 42 288 2.6 0.0 0.00 0.00 0.01 51 1012.7
20260502230019 43 331 2.6 0.0 0.00 0.00 0.01 51 1012.7
20260502224517 43 286 0.9 0.0 0.00 0.00 0.01 51 1012.6
20260502223013 43 294 1.7 0.0 0.00 0.00 0.01 49 1012.5
20260502221508 44 260 1.7 0.0 0.00 0.00 0.01 48 1012.4
20260502220004 44 292 1.7 0.0 0.00 0.00 0.01 47 1012.3
20260502214502 44 284 1.7 0.0 0.00 0.00 0.01 46 1012.2
20260502213106 45 302 1.7 0.0 0.00 0.00 0.01 46 1012.3
20260502211554 44 277 1.7 0.0 0.00 0.00 0.01 49 1012.2
20260502210048 44 283 2.6 0.0 0.00 0.00 0.01 48 1012.2